EAG5504 OEJN-LIMC

Flight info

Callsign EAG5504
Flight time N/A
Altitude 36000
Route BOMOX M686 OTEMO T55 NABED/N0478F380 T55 TANSA DCT KOR DCT OLGAT DCT TUFTE DCT LOMED DCT BEROK DCT MIVKI DCT GOLAS/N0415F180 T648 MEBUR
Aircraft B77L/H-SDE1E2E3FGHIJ2J3J4J5M1RWXY/LB1D1

Departure

Time N/A
Airport King Abdulaziz International Airport (OEJN)

Arrival

Time 2026-04-30 20:32
Airport Milan Malpensa International Airport (LIMC)
Time Latitude Longitude Altitude Speed Heading
2026-04-30 15:12 21.67737 39.14965 61 ft 0 kts 70°
2026-04-30 17:39 32.37576 28.44691 38136 ft 464 kts 317°
2026-04-30 17:42 32.62440 28.20263 38135 ft 465 kts 317°
2026-04-30 17:43 32.74887 28.07965 38178 ft 468 kts 317°
2026-04-30 17:44 32.89912 27.93059 38179 ft 468 kts 317°
2026-04-30 17:47 33.11544 27.71479 38179 ft 469 kts 317°
2026-04-30 17:48 33.29004 27.53955 38179 ft 468 kts 317°
2026-04-30 17:50 33.48821 27.33949 38179 ft 467 kts 317°
2026-04-30 17:52 33.63735 27.18812 38179 ft 467 kts 317°
2026-04-30 17:54 33.86055 26.96049 38201 ft 470 kts 317°
2026-04-30 17:56 34.06128 26.75840 38207 ft 471 kts 320°
2026-04-30 17:58 34.21792 26.61411 38207 ft 472 kts 320°
2026-04-30 18:00 34.42567 26.42037 38206 ft 472 kts 319°
2026-04-30 18:01 34.55514 26.29870 38206 ft 472 kts 319°
2026-04-30 18:02 34.71074 26.15180 38207 ft 472 kts 319°
2026-04-30 18:04 34.86595 26.00473 38190 ft 472 kts 319°
2026-04-30 18:06 35.07258 25.80740 38195 ft 472 kts 319°
2026-04-30 18:08 35.25311 25.63350 38191 ft 472 kts 319°
2026-04-30 18:10 35.45750 25.43553 38181 ft 464 kts 319°
2026-04-30 18:11 35.63541 25.26307 38184 ft 466 kts 319°
2026-04-30 18:13 35.76262 25.13876 38188 ft 468 kts 319°
2026-04-30 18:14 35.89002 25.01404 38196 ft 470 kts 319°
2026-04-30 18:15 36.04341 24.86249 38196 ft 471 kts 319°
2026-04-30 18:16 36.14559 24.76124 38205 ft 471 kts 319°
2026-04-30 18:17 36.19673 24.71041 38203 ft 471 kts 319°
2026-04-30 18:18 36.27338 24.63473 38205 ft 471 kts 319°
2026-04-30 18:18 36.32437 24.58389 38178 ft 467 kts 318°
2026-04-30 18:19 36.37463 24.53359 38148 ft 462 kts 318°
2026-04-30 18:19 36.42470 24.48343 38150 ft 462 kts 318°
2026-04-30 18:20 36.47493 24.43305 38148 ft 463 kts 318°
2026-04-30 18:20 36.52500 24.38271 38149 ft 463 kts 318°
2026-04-30 18:21 36.57482 24.33248 38160 ft 464 kts 318°
2026-04-30 18:21 36.62502 24.28175 38168 ft 466 kts 318°
2026-04-30 18:22 36.67560 24.23081 38165 ft 467 kts 319°
2026-04-30 18:22 36.75124 24.15470 38168 ft 465 kts 318°
2026-04-30 18:23 36.80145 24.10365 38177 ft 466 kts 318°
2026-04-30 18:23 36.85182 24.05234 38176 ft 467 kts 318°
2026-04-30 18:24 36.92706 23.97563 38177 ft 466 kts 318°
2026-04-30 18:25 36.97732 23.92437 38178 ft 467 kts 318°
2026-04-30 18:25 37.05276 23.84711 38178 ft 467 kts 318°
2026-04-30 18:26 37.12789 23.76992 38177 ft 467 kts 318°
2026-04-30 18:27 37.20331 23.69256 38177 ft 467 kts 319°
2026-04-30 18:28 37.27888 23.61515 38177 ft 467 kts 318°
2026-04-30 18:28 37.35424 23.53742 38177 ft 467 kts 318°
2026-04-30 18:29 37.45439 23.43371 38177 ft 467 kts 318°
2026-04-30 18:30 37.55422 23.32996 38149 ft 459 kts 318°
2026-04-30 18:31 37.62813 23.25290 38149 ft 460 kts 318°
2026-04-30 18:32 37.70232 23.17558 38150 ft 463 kts 318°
2026-04-30 18:33 37.77685 23.09757 38150 ft 463 kts 318°
2026-04-30 18:33 37.84279 23.02807 38154 ft 464 kts 317°
2026-04-30 18:34 37.91686 22.94913 38156 ft 463 kts 314°
2026-04-30 18:35 37.95847 22.88716 38148 ft 462 kts 304°
2026-04-30 18:35 37.99456 22.81967 38148 ft 461 kts 302°
2026-04-30 18:36 38.04906 22.71983 38147 ft 460 kts 303°
2026-04-30 18:37 38.10387 22.61972 38148 ft 460 kts 303°
2026-04-30 18:37 38.14042 22.55301 38147 ft 461 kts 304°
2026-04-30 18:38 38.17724 22.48626 38148 ft 460 kts 303°
2026-04-30 18:38 38.21362 22.41934 38148 ft 459 kts 303°
2026-04-30 18:39 38.24967 22.35279 38148 ft 459 kts 303°
2026-04-30 18:39 38.28592 22.28579 38148 ft 459 kts 303°
2026-04-30 18:40 38.32214 22.21879 38148 ft 459 kts 303°
2026-04-30 18:40 38.35856 22.15188 38148 ft 460 kts 303°
2026-04-30 18:41 38.39486 22.08496 38173 ft 457 kts 303°
2026-04-30 18:41 38.43082 22.01800 38174 ft 456 kts 303°
2026-04-30 18:42 38.46646 21.95144 38173 ft 457 kts 303°
2026-04-30 18:42 38.52043 21.85059 38171 ft 458 kts 303°
2026-04-30 18:45 38.71637 21.48163 38162 ft 459 kts 302°
2026-04-30 18:46 38.75212 21.41364 38163 ft 459 kts 302°
2026-04-30 18:46 38.78754 21.34606 38164 ft 459 kts 302°
2026-04-30 18:47 38.82341 21.27817 38158 ft 460 kts 303°
2026-04-30 18:47 38.85926 21.21016 38152 ft 460 kts 302°
2026-04-30 18:48 38.89479 21.14192 38153 ft 459 kts 302°
2026-04-30 18:48 38.93020 21.07368 38156 ft 459 kts 302°
2026-04-30 18:49 38.96561 21.00543 38150 ft 458 kts 302°
2026-04-30 18:49 39.00101 20.93713 38150 ft 459 kts 302°
2026-04-30 18:50 39.03604 20.86939 38200 ft 456 kts 302°
2026-04-30 18:50 39.07092 20.80174 38204 ft 452 kts 302°
2026-04-30 18:51 39.10603 20.73440 38205 ft 452 kts 302°
2026-04-30 18:51 39.14091 20.66704 38209 ft 450 kts 302°
2026-04-30 18:52 39.17526 20.59996 38204 ft 449 kts 302°
2026-04-30 18:52 39.20966 20.53259 38198 ft 451 kts 302°
2026-04-30 18:53 39.24420 20.46494 38201 ft 452 kts 302°
2026-04-30 18:53 39.27873 20.39753 38200 ft 452 kts 302°
2026-04-30 18:54 39.31371 20.32975 38191 ft 453 kts 302°
2026-04-30 18:54 39.34840 20.26162 38191 ft 454 kts 302°
2026-04-30 18:55 39.38309 20.19323 38185 ft 455 kts 302°
2026-04-30 18:55 39.43533 20.09040 38197 ft 454 kts 303°
2026-04-30 18:56 39.49689 19.99889 38209 ft 453 kts 313°
2026-04-30 18:57 39.56477 19.91230 38208 ft 455 kts 313°
2026-04-30 18:57 39.60902 19.85420 38207 ft 451 kts 312°
2026-04-30 18:58 39.67489 19.76666 38207 ft 452 kts 312°
2026-04-30 18:59 39.74087 19.67953 38205 ft 454 kts 312°
2026-04-30 19:00 39.82964 19.56120 38204 ft 457 kts 312°
2026-04-30 19:01 39.91781 19.44296 38201 ft 455 kts 312°
2026-04-30 19:02 39.98380 19.35416 38200 ft 456 kts 312°
2026-04-30 19:03 40.07209 19.23548 38200 ft 454 kts 312°
2026-04-30 19:04 40.15993 19.11606 38195 ft 459 kts 312°
2026-04-30 19:05 40.24593 18.99281 38198 ft 457 kts 302°
2026-04-30 19:06 40.30364 18.84424 38191 ft 458 kts 294°
2026-04-30 19:06 40.34439 18.73178 38191 ft 457 kts 295°
2026-04-30 19:07 40.38576 18.61893 38192 ft 458 kts 295°
2026-04-30 19:08 40.44157 18.46862 38194 ft 458 kts 295°
2026-04-30 19:09 40.48312 18.35585 38193 ft 457 kts 295°
2026-04-30 19:09 40.51076 18.28063 38194 ft 457 kts 295°
2026-04-30 19:10 40.56518 18.13013 38252 ft 455 kts 295°
2026-04-30 19:11 40.60589 18.01723 38289 ft 454 kts 295°
2026-04-30 19:12 40.63521 17.94370 38289 ft 453 kts 299°
2026-04-30 19:12 40.66728 17.87300 38295 ft 452 kts 300°
2026-04-30 19:13 40.73092 17.72994 38293 ft 453 kts 299°
2026-04-30 19:14 40.76248 17.65778 38294 ft 454 kts 299°
2026-04-30 19:14 40.79412 17.58563 38285 ft 454 kts 299°
2026-04-30 19:15 40.82606 17.51348 38257 ft 454 kts 299°
2026-04-30 19:15 40.87331 17.40533 38263 ft 454 kts 299°
2026-04-30 19:16 40.90481 17.33280 38267 ft 455 kts 298°
2026-04-30 19:17 40.95200 17.22377 38275 ft 456 kts 298°
2026-04-30 19:17 40.99921 17.11487 38259 ft 456 kts 299°
2026-04-30 19:18 41.04625 17.00567 38233 ft 454 kts 298°
2026-04-30 19:19 41.07735 16.93271 38249 ft 455 kts 298°
2026-04-30 19:19 41.11877 16.83534 38261 ft 455 kts 298°
2026-04-30 19:20 41.15534 16.75034 38299 ft 455 kts 300°
2026-04-30 19:21 41.20136 16.65634 38281 ft 456 kts 302°
2026-04-30 19:22 41.27081 16.51535 38332 ft 456 kts 301°
2026-04-30 19:23 41.37418 16.30313 38247 ft 454 kts 302°
2026-04-30 19:24 41.42560 16.19725 38265 ft 454 kts 301°
2026-04-30 19:25 41.51083 16.02008 38218 ft 454 kts 301°
2026-04-30 19:26 41.57894 15.87767 38213 ft 455 kts 301°
2026-04-30 19:27 41.62971 15.77105 38216 ft 455 kts 301°
2026-04-30 19:28 41.68063 15.66375 38219 ft 455 kts 301°
2026-04-30 19:29 41.74821 15.52073 38219 ft 455 kts 301°
2026-04-30 19:30 41.81574 15.37714 38223 ft 455 kts 301°
2026-04-30 19:31 41.88280 15.23389 38231 ft 455 kts 301°
2026-04-30 19:31 41.93318 15.12580 38251 ft 456 kts 301°
2026-04-30 19:32 41.96677 15.05354 38245 ft 455 kts 301°
2026-04-30 19:32 42.00027 14.98127 38263 ft 455 kts 301°
2026-04-30 19:33 42.03373 14.90894 38374 ft 456 kts 301°
2026-04-30 19:33 42.06725 14.83629 38398 ft 458 kts 301°
2026-04-30 19:34 42.10065 14.76372 38400 ft 458 kts 301°
2026-04-30 19:35 42.15086 14.65432 38411 ft 457 kts 301°
2026-04-30 19:35 42.18426 14.58131 38405 ft 458 kts 300°
2026-04-30 19:36 42.21770 14.50803 38425 ft 458 kts 301°
2026-04-30 19:36 42.26753 14.39851 38426 ft 458 kts 301°
2026-04-30 19:37 42.30081 14.32514 38424 ft 458 kts 300°
2026-04-30 19:37 42.33410 14.25156 38430 ft 458 kts 300°
2026-04-30 19:38 42.36712 14.17840 38433 ft 458 kts 300°
2026-04-30 19:38 42.40025 14.10483 38428 ft 458 kts 300°
2026-04-30 19:39 42.43338 14.03107 38388 ft 459 kts 300°
2026-04-30 19:39 42.46658 13.95695 38396 ft 459 kts 300°
2026-04-30 19:40 42.49942 13.88346 38406 ft 458 kts 300°
2026-04-30 19:40 42.53256 13.80970 38350 ft 460 kts 301°
2026-04-30 19:41 42.56576 13.73547 38363 ft 458 kts 300°
2026-04-30 19:41 42.59855 13.66122 38322 ft 460 kts 300°
2026-04-30 19:42 42.63154 13.58631 38215 ft 465 kts 300°
2026-04-30 19:42 42.66472 13.51088 38228 ft 469 kts 300°
2026-04-30 19:43 42.69984 13.43563 38221 ft 470 kts 304°
2026-04-30 19:44 42.75938 13.33098 38296 ft 464 kts 307°
2026-04-30 19:44 42.79913 13.26200 38310 ft 461 kts 306°
2026-04-30 19:45 42.83831 13.19269 38294 ft 463 kts 306°
2026-04-30 19:45 42.87748 13.12283 38293 ft 464 kts 306°
2026-04-30 19:46 42.91661 13.05349 38369 ft 458 kts 307°
2026-04-30 19:46 42.95526 12.98521 38371 ft 457 kts 306°
2026-04-30 19:47 42.99391 12.91628 38362 ft 458 kts 306°
2026-04-30 19:47 43.03255 12.84700 38377 ft 458 kts 306°
2026-04-30 19:48 43.07117 12.77754 38384 ft 458 kts 306°
2026-04-30 19:48 43.10967 12.70810 38389 ft 458 kts 306°
2026-04-30 19:49 43.14805 12.63872 38389 ft 458 kts 306°
2026-04-30 19:49 43.20544 12.53466 38390 ft 457 kts 306°
2026-04-30 19:50 43.24376 12.46497 38389 ft 457 kts 306°
2026-04-30 19:50 43.28207 12.39513 38403 ft 457 kts 306°
2026-04-30 19:51 43.32019 12.32547 38406 ft 458 kts 306°
2026-04-30 19:51 43.35850 12.25531 38399 ft 458 kts 306°
2026-04-30 19:52 43.39665 12.18525 38398 ft 458 kts 306°
2026-04-30 19:52 43.43477 12.11510 38430 ft 458 kts 306°
2026-04-30 19:53 43.47267 12.04518 38433 ft 458 kts 306°
2026-04-30 19:53 43.51080 11.97466 38432 ft 458 kts 306°
2026-04-30 19:54 43.54886 11.90412 38438 ft 458 kts 306°
2026-04-30 19:54 43.58689 11.83345 38439 ft 458 kts 306°
2026-04-30 19:55 43.62486 11.76274 38441 ft 458 kts 306°
2026-04-30 19:55 43.66275 11.69200 38442 ft 458 kts 306°
2026-04-30 19:56 43.70066 11.62103 38442 ft 458 kts 306°
2026-04-30 19:56 43.73820 11.55061 38442 ft 458 kts 306°
2026-04-30 19:57 43.77598 11.47955 38442 ft 458 kts 306°
2026-04-30 19:57 43.81385 11.40816 38443 ft 458 kts 306°
2026-04-30 19:58 43.85170 11.33707 38442 ft 458 kts 306°
2026-04-30 19:58 43.88947 11.26595 38443 ft 458 kts 306°
2026-04-30 19:59 43.92681 11.19478 38443 ft 458 kts 305°
2026-04-30 20:00 43.98300 11.08728 38443 ft 458 kts 305°
2026-04-30 20:00 44.01946 11.01482 38444 ft 458 kts 300°
2026-04-30 20:01 44.05305 10.89067 38443 ft 459 kts 286°
2026-04-30 20:01 44.06985 10.80504 38443 ft 459 kts 287°
2026-04-30 20:02 44.09743 10.67758 38443 ft 459 kts 287°
2026-04-30 20:03 44.12449 10.54979 38443 ft 459 kts 287°
2026-04-30 20:03 44.14241 10.46444 38420 ft 458 kts 287°
2026-04-30 20:04 44.16018 10.37981 38413 ft 458 kts 287°
2026-04-30 20:05 44.18696 10.25190 38400 ft 458 kts 287°
2026-04-30 20:05 44.21331 10.12332 37631 ft 463 kts 287°
2026-04-30 20:06 44.22395 10.08090 36818 ft 463 kts 293°
2026-04-30 20:06 44.23320 10.05404 36324 ft 462 kts 298°
2026-04-30 20:06 44.24999 10.01590 35631 ft 461 kts 304°
2026-04-30 20:06 44.26863 9.97961 34949 ft 459 kts 306°
2026-04-30 20:07 44.28803 9.94442 34250 ft 457 kts 307°
2026-04-30 20:07 44.30722 9.90902 33569 ft 455 kts 306°
2026-04-30 20:07 44.34402 9.83766 32202 ft 450 kts 305°
2026-04-30 20:08 44.36203 9.80194 31529 ft 447 kts 305°
2026-04-30 20:08 44.37983 9.76669 30934 ft 442 kts 305°
2026-04-30 20:08 44.39751 9.73173 30402 ft 436 kts 305°
2026-04-30 20:08 44.41466 9.69781 29868 ft 430 kts 305°
2026-04-30 20:09 44.43186 9.66380 29318 ft 425 kts 305°
2026-04-30 20:09 44.44916 9.63053 28775 ft 419 kts 307°
2026-04-30 20:09 44.48736 9.56988 27677 ft 409 kts 312°
2026-04-30 20:10 44.52652 9.51340 26641 ft 398 kts 313°
2026-04-30 20:10 44.54575 9.48582 26127 ft 392 kts 313°
2026-04-30 20:10 44.56470 9.45879 25638 ft 386 kts 313°
2026-04-30 20:11 44.60154 9.40533 24640 ft 375 kts 312°
2026-04-30 20:11 44.61949 9.37901 24130 ft 370 kts 312°
2026-04-30 20:11 44.63721 9.35295 23565 ft 368 kts 313°
2026-04-30 20:12 44.67211 9.30159 22440 ft 364 kts 314°
2026-04-30 20:12 44.68957 9.27586 21883 ft 362 kts 314°
2026-04-30 20:12 44.70693 9.25029 21330 ft 361 kts 314°
2026-04-30 20:13 44.72425 9.22475 20786 ft 360 kts 314°
2026-04-30 20:13 44.74153 9.19908 20239 ft 362 kts 313°
2026-04-30 20:13 44.75736 9.17147 19701 ft 366 kts 307°
2026-04-30 20:13 44.77206 9.14144 19143 ft 380 kts 304°
2026-04-30 20:14 44.78618 9.10979 18567 ft 382 kts 303°
2026-04-30 20:14 44.79971 9.07756 18031 ft 381 kts 302°
2026-04-30 20:14 44.81289 9.04537 17466 ft 377 kts 302°
2026-04-30 20:14 44.82595 9.01346 16905 ft 374 kts 302°
2026-04-30 20:15 44.83895 8.98192 16368 ft 370 kts 303°
2026-04-30 20:15 44.85186 8.95133 15843 ft 366 kts 303°
2026-04-30 20:15 44.86485 8.92059 15294 ft 363 kts 303°
2026-04-30 20:15 44.87772 8.88971 14608 ft 366 kts 302°
2026-04-30 20:16 44.89051 8.85874 14063 ft 364 kts 303°
2026-04-30 20:16 44.90320 8.82785 13510 ft 363 kts 303°
2026-04-30 20:16 44.91587 8.79696 12890 ft 364 kts 303°
2026-04-30 20:16 44.92843 8.76629 12428 ft 359 kts 302°
2026-04-30 20:17 44.94080 8.73604 12192 ft 348 kts 303°
2026-04-30 20:17 44.95264 8.70707 12167 ft 333 kts 303°
2026-04-30 20:17 44.96400 8.67927 12089 ft 320 kts 303°
2026-04-30 20:17 44.97490 8.65260 12020 ft 307 kts 303°
2026-04-30 20:18 44.98529 8.62721 11949 ft 296 kts 304°
2026-04-30 20:18 44.99738 8.60502 11872 ft 277 kts 322°
2026-04-30 20:18 45.01354 8.59152 11779 ft 264 kts 338°
2026-04-30 20:18 45.03064 8.58169 11443 ft 270 kts 341°
2026-04-30 20:19 45.04906 8.57387 11087 ft 281 kts 347°
2026-04-30 20:19 45.06836 8.56815 10785 ft 283 kts 351°
2026-04-30 20:19 45.08785 8.56446 10486 ft 280 kts 354°
2026-04-30 20:19 45.10698 8.56050 10326 ft 273 kts 351°
2026-04-30 20:20 45.12509 8.55552 10241 ft 264 kts 349°
2026-04-30 20:20 45.14318 8.55002 9998 ft 261 kts 349°
2026-04-30 20:20 45.16058 8.54489 9762 ft 258 kts 350°
2026-04-30 20:20 45.17851 8.53982 9233 ft 267 kts 350°
2026-04-30 20:21 45.19694 8.53467 8769 ft 273 kts 350°
2026-04-30 20:21 45.21547 8.52948 8634 ft 267 kts 350°
2026-04-30 20:21 45.23342 8.52452 8577 ft 259 kts 351°
2026-04-30 20:21 45.25090 8.51968 8471 ft 253 kts 350°
2026-04-30 20:22 45.26789 8.51496 8370 ft 244 kts 350°
2026-04-30 20:22 45.28406 8.51046 8109 ft 237 kts 350°
2026-04-30 20:22 45.30030 8.50642 7600 ft 240 kts 356°
2026-04-30 20:22 45.31677 8.51030 6971 ft 247 kts 24°
2026-04-30 20:23 45.32990 8.52607 6586 ft 252 kts 51°
2026-04-30 20:23 45.33753 8.54796 6530 ft 243 kts 69°
2026-04-30 20:23 45.34078 8.57134 6331 ft 242 kts 79°
2026-04-30 20:23 45.34258 8.59504 6080 ft 241 kts 79°
2026-04-30 20:24 45.34501 8.61865 5834 ft 239 kts 77°
2026-04-30 20:24 45.34786 8.64160 5718 ft 231 kts 76°
2026-04-30 20:24 45.35090 8.66361 5632 ft 223 kts 75°
2026-04-30 20:24 45.35391 8.68520 5441 ft 222 kts 75°
2026-04-30 20:25 45.35971 8.72788 4983 ft 217 kts 75°
2026-04-30 20:25 45.36251 8.74852 4782 ft 212 kts 75°
2026-04-30 20:26 45.36949 8.78663 4636 ft 188 kts 54°
2026-04-30 20:26 45.39371 8.79801 4466 ft 195 kts
2026-04-30 20:26 45.40713 8.79549 4382 ft 192 kts 353°
2026-04-30 20:27 45.43251 8.78807 4112 ft 184 kts 350°
2026-04-30 20:27 45.45788 8.78088 3880 ft 187 kts 350°
2026-04-30 20:28 45.48336 8.77384 3375 ft 185 kts 349°
2026-04-30 20:28 45.50791 8.76709 2930 ft 169 kts 350°
2026-04-30 20:29 45.53030 8.76094 2464 ft 161 kts 350°
2026-04-30 20:30 45.56334 8.75185 1818 ft 161 kts 351°
2026-04-30 20:30 45.59577 8.74291 1195 ft 149 kts 350°
2026-04-30 20:31 45.62436 8.73508 782 ft 116 kts 348°
2026-04-30 20:32 45.63271 8.73038 781 ft 19 kts 306°
2026-04-30 20:32 45.63402 8.72729 781 ft 17 kts 278°
2026-04-30 20:33 45.63401 8.72563 781 ft 16 kts 258°
2026-04-30 20:33 45.63359 8.72261 781 ft 14 kts 259°
2026-04-30 20:33 45.63341 8.72124 781 ft 14 kts 259°
2026-04-30 20:34 45.63322 8.71978 781 ft 0 kts 259°
2026-04-30 20:35 45.63321 8.71972 781 ft 3 kts 259°
2026-04-30 20:36 45.63314 8.71919 781 ft 8 kts 259°
2026-04-30 20:36 45.63300 8.71818 781 ft 13 kts 258°
2026-04-30 20:36 45.63290 8.71744 781 ft 0 kts 258°
2026-04-30 20:37 45.63286 8.71723 781 ft 6 kts 257°
2026-04-30 20:37 45.63257 8.71656 781 ft 10 kts 205°
2026-04-30 20:37 45.63196 8.71670 781 ft 12 kts 167°
2026-04-30 20:38 45.63097 8.71698 781 ft 17 kts 170°
2026-04-30 20:38 45.62961 8.71736 781 ft 22 kts 168°
2026-04-30 20:38 45.62794 8.71784 781 ft 26 kts 169°
2026-04-30 20:39 45.62387 8.71906 781 ft 33 kts 169°
2026-04-30 20:39 45.62180 8.71955 781 ft 28 kts 169°
2026-04-30 20:39 45.61997 8.72005 781 ft 25 kts 168°
2026-04-30 20:40 45.61688 8.72085 781 ft 20 kts 167°
2026-04-30 20:40 45.61555 8.72127 781 ft 14 kts 168°
2026-04-30 20:40 45.61507 8.72113 781 ft 5 kts 251°
2026-04-30 20:41 45.61492 8.72019 781 ft 3 kts 259°
2026-04-30 20:41 45.61488 8.71991 781 ft 3 kts 259°
2026-04-30 20:41 45.61488 8.71989 781 ft 0 kts 259°